Simultaneous Nadir Overpasses (SNOs) Predictions

Prediction of SNOs between GOES-17 and AQUA Satellite Orbit:

Table of predicted SNOs for the next 14.0 days since TLE Epoch: 10/26/2024
Index Date Time (GOES-17) GOES-17 Lat,Lon AQUA Lat,Lon Distance(km) Time Diff (sec)
1 10/26/2024 09:21:54 -0.00,-104.70 0.06,-104.97 30.87 80
2 10/28/2024 09:01:10 -0.00,-104.71 -0.90,-100.56 472.63 80
3 10/28/2024 21:21:03 0.00,-104.70 -0.12,-105.37 75.85 80
4 10/30/2024 21:05:36 0.00,-104.71 0.79,-100.93 429.14 80
5 10/31/2024 09:25:20 -0.00,-104.73 0.18,-105.71 110.92 80
6 11/02/2024 09:04:31 0.01,-104.73 -0.72,-101.26 394.61 80
7 11/02/2024 21:24:23 -0.02,-104.71 -0.29,-106.07 154.06 80
8 11/04/2024 21:08:52 -0.03,-104.71 0.62,-101.61 352.10 80
9 11/05/2024 09:28:35 0.03,-104.74 0.36,-106.39 187.05 80
10 11/07/2024 09:07:43 0.02,-104.74 -0.60,-101.94 319.03 80
11 11/07/2024 21:27:32 -0.03,-104.71 -0.46,-106.73 229.99 80
